Zurück zum Katalog

NOAA 16 DEB

AktivSSO
NORAD 41705·DEBRIS·🇺🇸 United States

Gestartet Sep 21, 2000 von Vandenberg Space Force Base

Loading…

Nächste Überflüge (nächste 24 Stunden)

TLE

AlterndSource: Space-Track

Epoche: Sep 7, 2026, 10:58 UTC

1 41705U 00055PK  26250.45736787  .00000620  00000-0  29950-3 0  9995
2 41705  98.6183 319.6988 0014533  27.2037 332.9899 14.22060932537327

Verfolge NOAA 16 DEB in Echtzeit mit AllMySat

Download on the App Store